Ironwood, MI

12:54 PM CDT on July 22, 2017 (GMT -0500)
Gogebic-Iron County

Weather History for KIWD - November, 2012

Change the Weather History Date:

Tuesday, November 6, 2012

  Actual Average Record
Temperature  
Mean Temperature 35 °F -  
Max Temperature 37 °F 41 °F 71 °F (2016)
Min Temperature 33 °F 28 °F 14 °F (2003)
Degree Days  
Heating Degree Days 30    
Moisture  
Dew Point 28 °F    
Average Humidity 76    
Maximum Humidity 87    
Minimum Humidity 60    
Precipitation  
Precipitation 0.02 in - - ()
Sea Level Pressure  
Sea Level Pressure 29.80 in    
Wind  
Wind Speed 9 mph (South)    
Max Wind Speed 14 mph    
Max Gust Speed 24 mph    
Visibility 9 miles    
Events      
Averages and records for this station are not official NWS values.
T = Trace of Precipitation, MM = Missing Value Source: NWS Daily Summary

Daily Weather History Graph

Daily Weather History Graph

Search for Another Location

Airport or City:

Trip Planner

Search our weather history database for the weather conditions in past years. The results will help you decide how hot, cold, wet, or windy it might be!

Date:

Astronomy

Nov. 06, 2012 Rise Set
Actual Time 6:50 AM CST 4:37 PM CST
Civil Twilight 6:18 AM CST 5:09 PM CST
Nautical Twilight 5:42 AM CST 5:45 PM CST
Astronomical Twilight 5:06 AM CST 6:20 PM CST
Moon 11:21 PM CST (11/6) 12:39 PM CST (11/6)
Length of Visible Light 10h 51m
Length of Day
9h 47m
Waning Gibbous, 53% of the Moon is Illuminated
Nov 6
Waning Gibbous
Nov 6
Last Quarter
Nov 13
New
Nov 20
First Quarter
Nov 28
Full

Hourly Weather History & Observations

Time (CST) Temp. Windchill Dew Point Humidity Pressure Visibility Wind Dir Wind Speed Gust Speed Precip Events Conditions
12:15 AM 33.8 °F 27.0 °F 23.0 °F 65% 29.93 in 10.0 mi South 8.1 mph - N/A   Mostly Cloudy
12:35 AM 33.8 °F 24.8 °F 23.0 °F 65% 29.92 in 10.0 mi South 12.7 mph 18.4 mph N/A   Overcast
12:55 AM 33.8 °F 25.3 °F 23.0 °F 65% 29.92 in 10.0 mi South 11.5 mph 17.3 mph N/A   Overcast
1:15 AM 33.8 °F 26.4 °F 23.0 °F 65% 29.91 in 10.0 mi South 9.2 mph 16.1 mph N/A   Overcast
1:35 AM 33.8 °F 27.0 °F 23.0 °F 65% 29.90 in 10.0 mi South 8.1 mph 17.3 mph N/A   Overcast
1:55 AM 33.8 °F 27.0 °F 23.0 °F 65% 29.89 in 10.0 mi South 8.1 mph 17.3 mph N/A   Overcast
2:15 AM 33.8 °F 27.7 °F 21.2 °F 60% 29.89 in 10.0 mi South 6.9 mph - N/A   Overcast
2:35 AM 33.8 °F 30.8 °F 23.0 °F 65% 29.88 in 10.0 mi SW 3.5 mph - N/A   Overcast
2:55 AM 33.8 °F 28.6 °F 23.0 °F 65% 29.86 in 10.0 mi South 5.8 mph - N/A   Overcast
3:15 AM 35.6 °F 28.0 °F 23.0 °F 60% 29.85 in 10.0 mi South 10.4 mph 18.4 mph N/A   Overcast
3:35 AM 35.6 °F 29.2 °F 23.0 °F 60% 29.84 in 10.0 mi South 8.1 mph - N/A   Overcast
3:55 AM 35.6 °F 27.5 °F 24.8 °F 65% 29.83 in 10.0 mi South 11.5 mph 17.3 mph N/A   Overcast
4:15 AM 35.6 °F 27.5 °F 23.0 °F 60% 29.82 in 10.0 mi South 11.5 mph 18.4 mph N/A   Overcast
4:35 AM 35.6 °F 28.0 °F 24.8 °F 65% 29.82 in 10.0 mi South 10.4 mph 17.3 mph N/A   Overcast
4:55 AM 35.6 °F 26.6 °F 24.8 °F 65% 29.81 in 10.0 mi SSE 13.8 mph 19.6 mph N/A   Overcast
5:15 AM 35.6 °F 26.6 °F 24.8 °F 65% 29.80 in 10.0 mi SSE 13.8 mph 18.4 mph N/A   Overcast
5:35 AM 35.6 °F 27.5 °F 24.8 °F 65% 29.80 in 10.0 mi SSE 11.5 mph 20.7 mph N/A   Mostly Cloudy
5:55 AM 33.8 °F 24.8 °F 26.6 °F 75% 29.79 in 5.0 mi South 12.7 mph 18.4 mph N/A   Overcast
6:15 AM 33.8 °F 26.4 °F 28.4 °F 81% 29.78 in 8.0 mi SSE 9.2 mph - N/A   Overcast
6:35 AM 33.8 °F 24.8 °F 28.4 °F 81% 29.77 in 5.0 mi SSE 12.7 mph 18.4 mph N/A   Mostly Cloudy
6:55 AM 33.8 °F 24.8 °F 28.4 °F 81% 29.77 in 5.0 mi SSE 12.7 mph 17.3 mph N/A   Scattered Clouds
7:15 AM 33.8 °F 26.4 °F 28.4 °F 81% 29.77 in 7.0 mi South 9.2 mph 18.4 mph N/A   Mostly Cloudy
7:35 AM 33.8 °F 26.4 °F 28.4 °F 81% 29.76 in 6.0 mi South 9.2 mph 20.7 mph N/A   Mostly Cloudy
7:55 AM 35.6 °F 27.1 °F 28.4 °F 75% 29.76 in 7.0 mi SSE 12.7 mph 19.6 mph N/A   Mostly Cloudy
8:15 AM 35.6 °F 27.5 °F 28.4 °F 75% 29.76 in 7.0 mi SSE 11.5 mph 19.6 mph N/A   Mostly Cloudy
8:35 AM 33.8 °F 24.8 °F 28.4 °F 81% 29.76 in 3.0 mi South 12.7 mph 17.3 mph N/A   Mostly Cloudy
8:55 AM 33.8 °F 25.3 °F 28.4 °F 81% 29.75 in 5.0 mi South 11.5 mph 18.4 mph N/A   Mostly Cloudy
9:15 AM 33.8 °F 24.8 °F 28.4 °F 81% 29.75 in 4.0 mi SSE 12.7 mph 21.9 mph N/A   Mostly Cloudy
9:55 AM 35.6 °F 27.1 °F 28.4 °F 75% 29.74 in 6.0 mi South 12.7 mph 20.7 mph N/A   Mostly Cloudy
10:15 AM 35.6 °F 28.0 °F 30.2 °F 81% 29.74 in 8.0 mi South 10.4 mph 24.2 mph N/A   Overcast
10:35 AM 35.6 °F 27.5 °F 30.2 °F 81% 29.74 in 7.0 mi South 11.5 mph 19.6 mph N/A   Mostly Cloudy
10:55 AM 35.6 °F 27.1 °F 30.2 °F 81% 29.74 in 9.0 mi South 12.7 mph 21.9 mph N/A   Mostly Cloudy
11:15 AM 35.6 °F 27.1 °F 30.2 °F 81% 29.73 in 9.0 mi South 12.7 mph 19.6 mph N/A   Mostly Cloudy
11:35 AM 35.6 °F 28.0 °F 30.2 °F 81% 29.73 in 9.0 mi South 10.4 mph 19.6 mph N/A   Mostly Cloudy
11:55 AM 37.4 °F 30.3 °F 30.2 °F 75% 29.72 in 10.0 mi South 10.4 mph 17.3 mph N/A   Overcast
12:15 PM 37.4 °F 29.3 °F 30.2 °F 75% 29.72 in 10.0 mi South 12.7 mph 17.3 mph N/A   Overcast
12:35 PM 37.4 °F 29.8 °F 30.2 °F 75% 29.72 in 10.0 mi South 11.5 mph 19.6 mph N/A   Overcast
12:55 PM 37.4 °F 28.9 °F 30.2 °F 75% 29.72 in 10.0 mi South 13.8 mph 19.6 mph N/A   Overcast
1:15 PM 37.4 °F 30.3 °F 30.2 °F 75% 29.72 in 10.0 mi South 10.4 mph 17.3 mph N/A   Overcast
1:35 PM 37.4 °F 30.3 °F 30.2 °F 75% 29.72 in 5.0 mi South 10.4 mph - N/A   Overcast
1:55 PM 35.6 °F 29.9 °F 30.2 °F 81% 29.72 in 8.0 mi South 6.9 mph - N/A   Overcast
2:15 PM 35.6 °F 29.9 °F 30.2 °F 81% 29.73 in 10.0 mi SSE 6.9 mph - N/A   Overcast
2:35 PM 35.6 °F 29.9 °F 30.2 °F 81% 29.74 in 10.0 mi South 6.9 mph - N/A   Overcast
2:55 PM 35.6 °F 32.8 °F 30.2 °F 81% 29.74 in 8.0 mi SSE 3.5 mph - 0.01 in   Overcast
3:15 PM 35.6 °F 30.7 °F 30.2 °F 81% 29.75 in 9.0 mi SSE 5.8 mph - N/A   Overcast
3:35 PM 35.6 °F 29.2 °F 30.2 °F 81% 29.75 in 10.0 mi South 8.1 mph - N/A   Overcast
3:55 PM 35.6 °F 30.7 °F 30.2 °F 81% 29.76 in 10.0 mi South 5.8 mph - N/A   Overcast
4:15 PM 35.6 °F 32.8 °F 30.2 °F 81% 29.77 in 9.0 mi South 3.5 mph - N/A   Overcast
4:35 PM 35.6 °F 32.8 °F 30.2 °F 81% 29.77 in 8.0 mi SSE 3.5 mph - N/A   Overcast
4:55 PM 35.6 °F - 30.2 °F 81% 29.78 in 8.0 mi Calm Calm - N/A   Overcast
5:15 PM 35.6 °F 32.8 °F 30.2 °F 81% 29.79 in 8.0 mi SSE 3.5 mph - N/A   Overcast
5:35 PM 35.6 °F - 30.2 °F 81% 29.79 in 10.0 mi Calm Calm - N/A   Overcast
5:55 PM 35.6 °F - 30.2 °F 81% 29.80 in 8.0 mi Calm Calm - N/A   Overcast
6:15 PM 35.6 °F - 30.2 °F 81% 29.81 in 10.0 mi Calm Calm - N/A   Overcast
6:35 PM 35.6 °F - 30.2 °F 81% 29.81 in 9.0 mi Calm Calm - N/A   Overcast
6:55 PM 35.6 °F 32.8 °F 30.2 °F 81% 29.81 in 9.0 mi South 3.5 mph - 0.01 in   Overcast
7:15 PM 35.6 °F - 30.2 °F 81% 29.82 in 10.0 mi Calm Calm - N/A   Overcast
7:35 PM 35.6 °F - 30.2 °F 81% 29.83 in 10.0 mi Calm Calm - N/A   Overcast
7:55 PM 35.6 °F - 28.4 °F 75% 29.83 in 10.0 mi Calm Calm - N/A   Overcast
8:15 PM 33.8 °F 30.8 °F 30.2 °F 87% 29.83 in 10.0 mi South 3.5 mph - N/A   Overcast
8:35 PM 35.6 °F 32.8 °F 30.2 °F 81% 29.84 in 10.0 mi South 3.5 mph - N/A   Overcast
8:55 PM 35.6 °F 32.8 °F 30.2 °F 81% 29.84 in 10.0 mi South 3.5 mph - N/A   Overcast
9:15 PM 35.6 °F 30.7 °F 30.2 °F 81% 29.84 in 10.0 mi South 5.8 mph - N/A   Overcast
9:35 PM 35.6 °F 30.7 °F 30.2 °F 81% 29.84 in 10.0 mi SSW 5.8 mph - N/A   Overcast
9:55 PM 35.6 °F 31.7 °F 30.2 °F 81% 29.85 in 10.0 mi South 4.6 mph - N/A   Overcast
10:15 PM 35.6 °F - 30.2 °F 81% 29.86 in 10.0 mi Calm Calm - N/A   Overcast
10:35 PM 35.6 °F 32.8 °F 30.2 °F 81% 29.86 in 10.0 mi South 3.5 mph - N/A   Overcast
10:55 PM 35.6 °F 31.7 °F 30.2 °F 81% 29.87 in 8.0 mi South 4.6 mph - N/A   Overcast
11:15 PM 33.8 °F 30.8 °F 30.2 °F 87% 29.88 in 5.0 mi South 3.5 mph - N/A   Overcast
11:35 PM 33.8 °F 29.6 °F 30.2 °F 87% 29.88 in 5.0 mi South 4.6 mph - N/A   Overcast
11:55 PM 33.8 °F 29.6 °F 30.2 °F 87% 29.88 in 5.0 mi South 4.6 mph - N/A   Overcast